| time (UTC) | temp F | wind direction | speed MPH | gust MPH | rain 1hr in | rain 24hr in | rain mn in | humidity % | barometer mb |
| 20260505035003 | 56 | 219 | 1.0 | 4.0 | 0.00 | 0.00 | 0.00 | 82 | 1010.8 |
| 20260505034003 | 57 | 224 | 0.0 | 9.0 | 0.00 | 0.00 | 0.00 | 81 | 1010.5 |
| 20260505033004 | 57 | 5 | 1.0 | 4.0 | 0.00 | 0.00 | 0.00 | 80 | 1010.5 |
| 20260505032004 | 57 | 5 | 1.0 | 4.0 | 0.00 | 0.00 | 0.00 | 80 | 1010.5 |
| 20260505031004 | 58 | 216 | 1.0 | 7.0 | 0.00 | 0.00 | 0.00 | 78 | 1010.2 |
| 20260505030004 | 59 | 229 | 3.0 | 12.0 | 0.00 | 0.00 | 0.00 | 77 | 1010.2 |
| 20260505025004 | 59 | 229 | 3.0 | 12.0 | 0.00 | 0.00 | 0.00 | 77 | 1010.2 |
| 20260505024003 | 60 | 59 | 1.0 | 8.0 | 0.00 | 0.00 | 0.00 | 76 | 1009.8 |
| 20260505023004 | 61 | 215 | 4.0 | 11.0 | 0.00 | 0.00 | 0.00 | 74 | 1009.8 |
| 20260505022003 | 61 | 215 | 4.0 | 11.0 | 0.00 | 0.00 | 0.00 | 74 | 1009.8 |
| 20260505021004 | 63 | 232 | 3.0 | 10.0 | 0.00 | 0.00 | 0.00 | 72 | 1009.8 |
| 20260505020003 | 64 | 196 | 2.0 | 9.0 | 0.00 | 0.00 | 0.00 | 71 | 1009.5 |
| 20260505015004 | 64 | 196 | 2.0 | 9.0 | 0.00 | 0.00 | 0.00 | 71 | 1009.5 |
| 20260505014003 | 65 | 217 | 3.0 | 9.0 | 0.00 | 0.00 | 0.00 | 70 | 1009.5 |
| 20260505013004 | 66 | 219 | 5.0 | 7.0 | 0.00 | 0.00 | 0.00 | 69 | 1009.5 |
| 20260505012004 | 66 | 219 | 5.0 | 7.0 | 0.00 | 0.00 | 0.00 | 69 | 1009.5 |
| 20260505011004 | 68 | 233 | 5.0 | 10.0 | 0.00 | 0.00 | 0.00 | 66 | 1009.5 |
| 20260505010004 | 69 | 232 | 5.0 | 10.0 | 0.00 | 0.00 | 0.00 | 65 | 1009.5 |
| 20260505005004 | 69 | 232 | 5.0 | 10.0 | 0.00 | 0.00 | 0.00 | 65 | 1009.5 |
| 20260505004003 | 70 | 213 | 4.0 | 8.0 | 0.00 | 0.00 | 0.00 | 63 | 1009.5 |
| 20260505003004 | 70 | 234 | 5.0 | 10.0 | 0.00 | 0.00 | 0.00 | 64 | 1009.5 |
| 20260505002004 | 70 | 234 | 5.0 | 10.0 | 0.00 | 0.00 | 0.00 | 64 | 1009.5 |
| 20260505001004 | 72 | 194 | 1.0 | 14.0 | 0.00 | 0.00 | 0.00 | 61 | 1009.1 |
| 20260505000005 | 74 | 190 | 2.0 | 10.0 | 0.00 | 0.00 | 0.00 | 58 | 1009.5 |
| 20260504235003 | 74 | 190 | 2.0 | 10.0 | 0.00 | 0.00 | 0.00 | 58 | 1009.5 |
| 20260504234003 | 74 | 200 | 3.0 | 10.0 | 0.00 | 0.00 | 0.00 | 57 | 1009.1 |
| 20260504233004 | 76 | 226 | 3.0 | 10.0 | 0.00 | 0.00 | 0.00 | 58 | 1009.1 |
| 20260504232003 | 76 | 226 | 3.0 | 10.0 | 0.00 | 0.00 | 0.00 | 58 | 1009.1 |
| 20260504231004 | 75 | 252 | 3.0 | 14.0 | 0.00 | 0.00 | 0.00 | 58 | 1009.1 |
| 20260504230005 | 75 | 216 | 5.0 | 14.0 | 0.00 | 0.00 | 0.00 | 58 | 1009.5 |
| 20260504225004 | 75 | 216 | 5.0 | 14.0 | 0.00 | 0.00 | 0.00 | 58 | 1009.5 |
| 20260504224003 | 75 | 202 | 1.0 | 14.0 | 0.00 | 0.00 | 0.00 | 59 | 1009.5 |
| 20260504223004 | 74 | 182 | 4.0 | 12.0 | 0.00 | 0.00 | 0.00 | 60 | 1009.5 |
| 20260504222003 | 74 | 182 | 4.0 | 12.0 | 0.00 | 0.00 | 0.00 | 60 | 1009.5 |
| 20260504221003 | 75 | 237 | 6.0 | 11.0 | 0.00 | 0.00 | 0.00 | 58 | 1009.8 |
| 20260504220004 | 74 | 242 | 3.0 | 8.0 | 0.00 | 0.00 | 0.00 | 58 | 1009.8 |
| 20260504215003 | 74 | 242 | 3.0 | 8.0 | 0.00 | 0.00 | 0.00 | 58 | 1009.8 |
| 20260504214004 | 74 | 221 | 3.0 | 14.0 | 0.00 | 0.00 | 0.00 | 60 | 1010.2 |
| 20260504213004 | 72 | 213 | 7.0 | 11.0 | 0.00 | 0.00 | 0.00 | 61 | 1010.2 |
| 20260504212004 | 72 | 213 | 7.0 | 11.0 | 0.00 | 0.00 | 0.00 | 61 | 1010.2 |
| 20260504211003 | 73 | 211 | 7.0 | 10.0 | 0.00 | 0.00 | 0.00 | 61 | 1010.2 |
| 20260504210004 | 73 | 215 | 2.0 | 9.0 | 0.00 | 0.00 | 0.00 | 65 | 1010.5 |
| 20260504205004 | 73 | 215 | 2.0 | 9.0 | 0.00 | 0.00 | 0.00 | 65 | 1010.5 |
| 20260504204003 | 71 | 233 | 6.0 | 7.0 | 0.00 | 0.00 | 0.00 | 64 | 1010.5 |
| 20260504203004 | 71 | 224 | 7.0 | 9.0 | 0.00 | 0.00 | 0.00 | 64 | 1010.8 |
| 20260504202003 | 71 | 224 | 7.0 | 9.0 | 0.00 | 0.00 | 0.00 | 64 | 1010.8 |
| 20260504201003 | 71 | 220 | 3.0 | 7.0 | 0.00 | 0.00 | 0.00 | 64 | 1010.8 |
| 20260504200003 | 69 | 21 | 2.0 | 9.0 | 0.00 | 0.00 | 0.00 | 71 | 1010.8 |
| 20260504195003 | 69 | 21 | 2.0 | 9.0 | 0.00 | 0.00 | 0.00 | 71 | 1010.8 |
| 20260504175003 | 63 | 223 | 1.0 | 8.0 | 0.00 | 0.00 | 0.00 | 73 | 1011.5 |
| 20260504174003 | 63 | 186 | 3.0 | 6.0 | 0.00 | 0.00 | 0.00 | 75 | 1011.5 |
| 20260504173004 | 61 | 217 | 7.0 | 10.0 | 0.00 | 0.00 | 0.00 | 77 | 1011.9 |
| 20260504172003 | 61 | 217 | 7.0 | 10.0 | 0.00 | 0.00 | 0.00 | 77 | 1011.9 |
| 20260504171004 | 60 | 194 | 4.0 | 11.0 | 0.00 | 0.00 | 0.00 | 79 | 1011.9 |
| 20260504151004 | 56 | 236 | 3.0 | 4.0 | 0.00 | 0.00 | 0.00 | 85 | 1011.2 |
| 20260504141003 | 53 | 53 | 1.0 | 2.0 | 0.00 | 0.00 | 0.00 | 89 | 1010.5 |
| 20260504082004 | 61 | 44 | 0.0 | 0.0 | 0.00 | 0.00 | 0.00 | 73 | 1007.5 |
| 20260504081003 | 62 | 44 | 0.0 | 0.0 | 0.00 | 0.00 | 0.00 | 71 | 1007.5 |
| 20260504050004 | 68 | 43 | 0.0 | 3.0 | 0.00 | 0.00 | 0.00 | 64 | 1006.4 |
| 20260504045004 | 68 | 43 | 0.0 | 3.0 | 0.00 | 0.00 | 0.00 | 64 | 1006.4 |
| 20260504044004 | 69 | 11 | 1.0 | 2.0 | 0.00 | 0.00 | 0.00 | 62 | 1006.1 |
| 20260504043004 | 70 | 24 | 0.0 | 3.0 | 0.00 | 0.00 | 0.00 | 57 | 1006.1 |
| 20260504042003 | 70 | 24 | 0.0 | 3.0 | 0.00 | 0.00 | 0.00 | 57 | 1006.1 |
| 20260504041003 | 71 | 40 | 0.0 | 2.0 | 0.00 | 0.00 | 0.00 | 57 | 1006.1 |
| 20260504040004 | 72 | 40 | 0.0 | 1.0 | 0.00 | 0.00 | 0.00 | 56 | 1005.8 |